UAE380 OMDB-VHHH

Flight info

Callsign UAE380
Flight time N/A
Altitude 35000
Route IVURO M677 LALDO B505 NADSO B524 ALPOR M504 TELEM A791 EKIGA/N0487F370 A791 CEA B465 CTG A599 LINSO/K0906S1130 A599 POU R473 SIERA/N0488F371
Aircraft B77W/H-SDE1E2E3FGHIJ2J3J4J5M1RWXY/LB1D1

Departure

Time 2026-04-21 15:25
Airport Dubai International Airport (OMDB)

Arrival

Time N/A
Airport Hong Kong International Airport (VHHH)
Time Latitude Longitude Altitude Speed Heading
2026-04-21 14:57 25.24301 55.37443 30 ft 0 kts 211°
2026-04-21 15:16 25.24311 55.37449 28 ft 3 kts 211°
2026-04-21 15:16 25.24328 55.37460 28 ft 3 kts 211°
2026-04-21 15:16 25.24345 55.37472 28 ft 3 kts 211°
2026-04-21 15:17 25.24362 55.37483 31 ft 3 kts 200°
2026-04-21 15:17 25.24380 55.37487 31 ft 3 kts 167°
2026-04-21 15:17 25.24396 55.37479 31 ft 3 kts 131°
2026-04-21 15:17 25.24408 55.37461 31 ft 2 kts 121°
2026-04-21 15:18 25.24414 55.37451 31 ft 3 kts 122°
2026-04-21 15:18 25.24424 55.37432 31 ft 3 kts 122°
2026-04-21 15:18 25.24428 55.37425 31 ft 0 kts 122°
2026-04-21 15:21 25.24427 55.37427 31 ft 2 kts 122°
2026-04-21 15:21 25.24405 55.37465 31 ft 10 kts 122°
2026-04-21 15:21 25.24357 55.37553 27 ft 15 kts 122°
2026-04-21 15:21 25.24302 55.37649 29 ft 15 kts 122°
2026-04-21 15:22 25.24258 55.37742 30 ft 11 kts 92°
2026-04-21 15:22 25.24304 55.37803 29 ft 11 kts 38°
2026-04-21 15:22 25.24366 55.37848 27 ft 11 kts 34°
2026-04-21 15:22 25.24444 55.37907 29 ft 20 kts 34°
2026-04-21 15:23 25.24576 55.38008 28 ft 24 kts 34°
2026-04-21 15:23 25.24679 55.38080 29 ft 11 kts 32°
2026-04-21 15:23 25.24744 55.38115 31 ft 11 kts
2026-04-21 15:23 25.24776 55.38082 31 ft 0 kts 302°
2026-04-21 15:24 25.24805 55.38030 30 ft 23 kts 301°
2026-04-21 15:24 25.25002 55.37674 31 ft 91 kts 301°
2026-04-21 15:24 25.25453 55.36862 29 ft 155 kts 301°
2026-04-21 15:24 25.26132 55.35722 151 ft 191 kts 304°
2026-04-21 15:25 25.26856 55.34497 754 ft 192 kts 304°
2026-04-21 15:25 25.27552 55.33229 1377 ft 195 kts 303°
2026-04-21 15:25 25.28242 55.31891 1843 ft 207 kts 302°
2026-04-21 15:25 25.29032 55.30462 2104 ft 221 kts 312°
2026-04-21 15:26 25.30309 55.29484 2360 ft 234 kts 349°
2026-04-21 15:26 25.31978 55.29467 2625 ft 249 kts
2026-04-21 15:26 25.33737 55.29607 3223 ft 256 kts
2026-04-21 15:26 25.35546 55.29661 3843 ft 263 kts
2026-04-21 15:27 25.37366 55.29697 4725 ft 257 kts 360°
2026-04-21 15:27 25.39153 55.29807 5260 ft 268 kts 11°
2026-04-21 15:27 25.40840 55.30808 5628 ft 288 kts 44°
2026-04-21 15:27 25.42081 55.32572 6229 ft 291 kts 54°
2026-04-21 15:28 25.43273 55.34404 6888 ft 297 kts 52°
2026-04-21 15:28 25.44535 55.36224 7555 ft 298 kts 51°
2026-04-21 15:28 25.45842 55.38024 8239 ft 300 kts 50°
2026-04-21 15:28 25.47180 55.39841 8779 ft 309 kts 50°
2026-04-21 15:29 25.48541 55.41693 9486 ft 310 kts 50°
2026-04-21 15:29 25.49896 55.43572 10142 ft 314 kts 50°
2026-04-21 15:29 25.51260 55.45494 10708 ft 324 kts 51°
2026-04-21 15:29 25.52486 55.47631 11025 ft 338 kts 69°
2026-04-21 15:30 25.52890 55.50244 11027 ft 365 kts 96°
2026-04-21 15:30 25.52158 55.53006 11037 ft 386 kts 121°
2026-04-21 15:30 25.50687 55.55533 11033 ft 393 kts 126°
2026-04-21 15:30 25.49150 55.58054 11023 ft 397 kts 126°
2026-04-21 15:31 25.47631 55.60603 11019 ft 397 kts 125°
2026-04-21 15:31 25.46139 55.63176 11013 ft 397 kts 124°
2026-04-21 15:31 25.44667 55.65753 11014 ft 396 kts 124°
2026-04-21 15:31 25.43200 55.68336 11010 ft 394 kts 123°
2026-04-21 15:32 25.42079 55.71077 11014 ft 396 kts 106°
2026-04-21 15:32 25.41529 55.74092 11023 ft 402 kts 102°
2026-04-21 15:32 25.40979 55.77121 11014 ft 401 kts 103°
2026-04-21 15:32 25.40353 55.80158 11325 ft 407 kts 105°
2026-04-21 15:33 25.39694 55.83215 12202 ft 408 kts 105°
2026-04-21 15:33 25.39033 55.86269 13135 ft 410 kts 105°
2026-04-21 15:33 25.38370 55.89354 13996 ft 412 kts 105°
2026-04-21 15:33 25.37707 55.92449 14727 ft 417 kts 105°
2026-04-21 15:34 25.37041 55.95559 15376 ft 424 kts 104°
2026-04-21 15:34 25.36349 55.98802 16060 ft 431 kts 104°
2026-04-21 15:34 25.35658 56.02040 16759 ft 436 kts 104°
2026-04-21 15:34 25.34956 56.05327 17459 ft 442 kts 104°
2026-04-21 15:35 25.34244 56.08660 18151 ft 448 kts 104°
2026-04-21 15:35 25.33532 56.11984 18752 ft 453 kts 104°
2026-04-21 15:35 25.32804 56.15397 19373 ft 456 kts 103°
2026-04-21 15:35 25.32290 56.18876 19976 ft 461 kts 96°
2026-04-21 15:36 25.32025 56.22423 20586 ft 466 kts 94°
2026-04-21 15:36 25.31828 56.26010 21160 ft 470 kts 94°
2026-04-21 15:36 25.31603 56.29633 21760 ft 475 kts 94°
2026-04-21 15:36 25.31326 56.33282 22408 ft 477 kts 96°
2026-04-21 15:37 25.31020 56.36945 22975 ft 481 kts 96°
2026-04-21 15:37 25.30734 56.40655 23464 ft 486 kts 94°
2026-04-21 15:37 25.30604 56.44400 23911 ft 490 kts 92°
2026-04-21 15:37 25.30526 56.48182 24388 ft 492 kts 92°
2026-04-21 15:38 25.30439 56.51926 24895 ft 495 kts 92°
2026-04-21 15:38 25.30280 56.55737 25364 ft 497 kts 96°
2026-04-21 15:38 25.29762 56.59529 25806 ft 499 kts 104°
2026-04-21 15:38 25.28903 56.63257 26261 ft 501 kts 109°
2026-04-21 15:39 25.27718 56.66884 26705 ft 501 kts 115°
2026-04-21 15:39 25.26353 56.70430 27162 ft 504 kts 115°
2026-04-21 15:39 25.24964 56.73997 27594 ft 507 kts 115°
2026-04-21 15:39 25.23569 56.77585 28018 ft 510 kts 115°
2026-04-21 15:40 25.22175 56.81196 28420 ft 512 kts 115°
2026-04-21 15:40 25.20783 56.84828 28826 ft 515 kts 115°
2026-04-21 15:40 25.19389 56.88485 29149 ft 518 kts 115°
2026-04-21 15:40 25.17987 56.92171 29486 ft 521 kts 115°
2026-04-21 15:41 25.16581 56.95868 29870 ft 523 kts 115°
2026-04-21 15:41 25.15191 56.99525 30300 ft 520 kts 115°
2026-04-21 15:41 25.13800 57.03183 30961 ft 513 kts 115°
2026-04-21 15:41 25.12421 57.06802 31436 ft 512 kts 115°
2026-04-21 15:42 25.11038 57.10423 31746 ft 513 kts 115°
2026-04-21 15:42 25.09649 57.14055 32080 ft 514 kts 114°
2026-04-21 15:42 25.08259 57.17687 32469 ft 513 kts 114°
2026-04-21 15:42 25.06873 57.21304 32865 ft 511 kts 114°
2026-04-21 15:43 25.05490 57.24912 33233 ft 511 kts 114°
2026-04-21 15:43 25.04105 57.28522 33593 ft 510 kts 114°
2026-04-21 15:43 25.02721 57.32127 33929 ft 510 kts 114°
2026-04-21 15:43 25.01334 57.35737 34172 ft 511 kts 114°
2026-04-21 15:44 24.99943 57.39354 34347 ft 514 kts 114°
2026-04-21 15:44 24.98544 57.42989 34509 ft 516 kts 114°
2026-04-21 15:44 24.97155 57.46593 34686 ft 518 kts 114°
2026-04-21 15:44 24.95738 57.50268 34780 ft 522 kts 114°
2026-04-21 15:45 24.92897 57.57629 34817 ft 520 kts 114°
2026-04-21 15:45 24.90074 57.64930 34820 ft 515 kts 114°
2026-04-21 15:46 24.87264 57.72184 34830 ft 515 kts 114°
2026-04-21 15:46 24.84449 57.79446 34831 ft 515 kts 113°
2026-04-21 15:47 24.82249 57.86952 34817 ft 516 kts 102°
2026-04-21 15:47 24.80744 57.94632 34831 ft 517 kts 101°
2026-04-21 15:48 24.79221 58.02382 34830 ft 519 kts 102°
2026-04-21 15:48 24.77652 58.10129 34824 ft 519 kts 102°
2026-04-21 15:49 24.76057 58.17894 34825 ft 519 kts 102°
2026-04-21 15:49 24.74461 58.25637 34830 ft 518 kts 102°